User: anonymous
Location: Charleston
(38.3500°N, 81.6330°W)
Time: 08:01:01
(UTC-04:00)
Language:

Cosmos 2228 - Orbit

View from above orbital plane
View from above orbital plane
View from above satellite
View from above satellite

Ground track
Ground track

The orbit data is extracted from the following two-line orbital elements,

1 22286U 92094A   14109.32703950  .00003427  00000-0  39126-3 0  2946
2 22286 082.5242 021.7585 0021011 355.1943 004.9067 14.85675807150876
Epoch (UTC): 19 April 2014 07:50:56
Eccentricity: 0.0021011
inclination: 82.5242°
perigee height: 597 km
apogee height: 626 km
right ascension of ascending node: 21.7585°
argument of perigee: 355.1943°
revolutions per day: 14.85675807
mean anomaly at epoch: 4.9067°
orbit number at epoch: 15087

The dashed part of the orbit path shows where the satellite is in the earth's shadow,  

DLR